Date,TemperatureHighF,TemperatureAvgF,TemperatureLowF,DewpointHighF,DewpointAvgF,DewpointLowF,HumidityHigh,HumidityAvg,HumidityLow,PressureMaxIn,PressureMinIn,WindSpeedMaxMPH,WindSpeedAvgMPH,GustSpeedMaxMPH,PrecipitationSumIn
2013-1-1,54.0,46.6,36.4,43.1,38.1,30.9,83,73,57,30.18,30.12,4,1,4,0.00
2013-1-2,52.1,49.8,47.2,47.4,45.1,42.8,88,84,76,30.31,30.10,14,4,14,0.36
2013-1-3,59.5,53.7,50.0,45.4,43.3,40.8,77,68,57,30.51,30.30,21,9,21,0.01
2013-1-4,58.0,49.8,44.4,45.1,41.1,37.6,81,72,59,30.50,30.31,16,6,16,0.00
2013-1-5,54.1,49.8,43.9,45.2,42.7,39.1,87,77,69,30.18,30.10,13,2,13,0.00
2013-1-6,59.3,52.3,48.5,47.7,42.3,38.3,87,69,50,30.22,30.10,22,6,22,0.00
2013-1-7,62.0,53.4,47.1,46.4,41.2,33.5,88,66,36,30.26,30.07,22,7,22,0.00
2013-1-8,58.3,50.8,45.5,40.6,36.8,33.3,78,59,44,30.31,30.23,14,5,14,0.00
2013-1-9,57.7,51.1,45.9,44.5,41.8,39.3,79,71,59,30.23,30.14,12,2,12,0.00
2013-1-10,55.7,51.5,48.6,47.5,45.2,42.4,88,79,68,30.15,29.83,12,2,12,0.02
2013-1-11,56.1,50.1,43.8,49.2,44.8,39.9,91,82,66,29.87,29.75,30,5,30,0.23
2013-1-12,56.7,47.9,41.2,45.1,41.7,36.7,88,80,61,30.08,29.83,10,3,10,0.04
2013-1-13,55.7,50.3,46.6,50.7,45.5,41.7,89,84,71,30.07,29.87,26,6,26,0.16
2013-1-14,56.3,52.0,46.4,49.7,46.8,43.0,90,83,73,29.97,29.83,23,7,23,0.48
2013-1-15,54.2,48.7,43.0,45.2,42.0,39.1,89,78,60,29.96,29.67,9,2,9,0.02
2013-1-16,48.8,43.5,39.3,42.8,37.5,34.0,87,80,61,29.67,29.50,33,7,33,0.65
2013-1-17,53.1,45.4,38.7,46.1,40.1,35.5,90,82,63,29.54,29.34,20,7,20,0.75
2013-1-18,46.9,40.7,36.3,36.7,35.2,33.1,90,81,66,29.62,29.32,18,2,18,0.11
2013-1-19,49.9,41.6,35.2,46.5,36.9,30.8,88,83,69,29.70,29.61,12,4,12,0.03
2013-1-20,62.0,56.4,49.9,54.3,51.6,46.5,91,84,71,29.61,29.48,21,6,21,0.41
2013-1-21,55.4,50.7,47.6,49.9,46.5,40.5,92,86,66,29.59,29.37,32,7,32,0.77
2013-1-22,54.2,47.9,43.8,46.1,42.3,37.5,91,82,55,29.84,29.58,39,8,39,0.17
2013-1-23,52.1,43.7,41.4,46.8,39.8,37.5,90,86,77,29.85,29.62,29,8,29,1.08
2013-1-24,52.7,46.4,43.0,43.4,41.5,39.4,89,83,67,29.62,29.39,14,5,14,0.34
2013-1-25,54.0,47.7,43.5,41.2,37.1,30.5,88,68,53,29.63,29.43,33,10,33,0.00
2013-1-26,49.4,44.6,39.9,35.5,31.4,28.9,71,60,51,29.86,29.62,21,6,21,0.00
2013-1-27,53.4,45.4,39.8,36.1,32.0,28.3,80,60,44,30.01,29.86,15,6,15,0.00
2013-1-28,49.5,44.9,39.4,41.2,37.9,34.3,84,77,61,30.04,29.88,23,6,23,0.08
2013-1-29,58.9,51.1,45.1,42.4,39.0,34.8,84,64,47,30.24,30.04,31,8,31,0.00
2013-1-30,58.9,48.7,42.3,48.4,43.6,39.0,89,83,67,30.24,30.18,15,2,15,0.00
2013-1-31,63.9,54.2,48.7,51.8,48.5,45.3,89,82,61,30.22,30.12,14,3,14,0.00
2013-2-1,60.4,54.8,48.9,52.5,49.8,45.8,91,84,70,30.20,29.82,14,4,14,0.00
2013-2-2,60.6,55.1,46.8,52.2,50.1,42.5,90,84,69,29.82,29.30,36,14,36,0.30
2013-2-3,49.3,45.4,42.6,44.1,39.0,30.5,87,79,57,29.96,29.44,32,8,32,0.51
2013-2-4,54.6,45.5,39.4,36.7,31.0,26.1,78,58,34,30.16,29.96,15,5,15,0.00
2013-2-5,54.4,46.3,35.5,48.2,38.4,29.0,89,74,58,30.14,29.81,18,4,18,0.08
2013-2-6,51.1,48.8,47.0,48.0,46.3,44.6,92,91,89,29.81,29.67,4,1,4,0.01
2013-2-7,50.2,44.6,42.2,41.0,38.6,36.6,84,79,68,29.55,29.50,21,7,21,0.18
2013-2-8,49.7,43.7,39.2,36.9,33.0,29.2,80,66,53,29.75,29.55,17,6,17,0.01
2013-2-9,48.2,40.1,35.7,32.5,29.5,27.0,83,66,50,29.89,29.73,24,7,24,0.03
2013-2-10,47.2,39.7,35.1,29.8,26.7,23.4,77,61,40,29.99,29.87,26,9,26,0.01
2013-2-11,53.6,43.9,35.9,45.4,35.2,25.1,86,71,58,30.00,29.64,32,11,32,0.25
2013-2-12,48.3,45.4,42.6,44.6,41.0,37.2,90,85,80,29.69,29.58,23,6,23,0.68
2013-2-13,55.6,46.7,41.2,42.8,39.6,37.7,91,77,56,29.84,29.65,16,3,16,0.02
2013-2-14,55.1,48.0,43.1,40.4,36.6,33.8,80,65,51,29.99,29.83,22,10,22,0.00
2013-2-15,54.5,47.2,38.8,41.4,37.7,32.1,81,70,52,30.01,29.97,17,4,17,0.00
2013-2-16,55.7,49.6,45.3,40.5,37.8,35.1,81,64,51,30.08,29.97,20,7,20,0.01
2013-2-17,57.1,48.6,42.6,40.6,35.8,32.8,75,62,43,30.07,29.97,18,6,18,0.00
2013-2-18,54.3,47.1,42.7,40.5,38.0,35.3,77,71,53,30.00,29.93,17,6,17,0.00
2013-2-19,53.8,45.1,40.0,37.4,34.3,29.1,80,67,40,30.00,29.93,20,6,20,0.00
2013-2-20,54.6,45.7,39.0,38.7,36.0,33.6,82,70,49,30.01,29.92,13,3,13,0.00
2013-2-21,53.4,44.9,39.8,38.7,35.0,32.6,79,68,54,29.92,29.70,14,4,14,0.00
2013-2-22,52.3,46.1,38.3,49.8,42.4,32.2,91,87,77,29.70,29.50,22,5,22,1.06
2013-2-23,56.2,52.0,44.1,49.2,46.5,40.5,91,82,70,29.67,29.50,31,8,31,0.36
2013-2-24,53.3,46.3,39.9,47.3,38.6,30.6,88,75,50,29.97,29.66,29,8,29,0.10
2013-2-25,53.2,44.7,38.8,41.6,36.9,33.2,85,75,57,30.05,29.96,18,5,18,0.07
2013-2-26,54.9,48.8,43.7,41.7,37.3,35.1,80,65,50,30.11,30.00,15,4,15,0.01
2013-2-27,56.4,50.5,43.8,40.2,38.6,37.1,78,64,52,30.21,30.11,16,5,16,0.00
2013-2-28,60.8,51.0,43.3,42.9,38.5,35.8,75,63,44,30.23,30.15,17,6,17,0.00
2013-3-1,56.9,52.2,46.7,41.3,39.2,36.6,71,61,51,30.15,29.87,32,14,32,0.00
2013-3-2,53.8,52.1,48.0,41.9,39.7,33.3,68,63,55,30.00,29.77,58,24,58,0.00
2013-3-3,61.8,50.2,43.1,43.0,35.7,27.1,83,59,30,30.08,29.99,18,6,18,0.00
2013-3-4,61.3,50.1,41.6,45.1,41.6,37.6,88,74,50,30.21,30.08,16,4,16,0.00
2013-3-5,62.9,52.9,42.8,45.4,40.8,36.6,83,64,41,30.22,30.01,16,3,16,0.01
2013-3-6,60.0,55.6,52.2,51.7,46.8,41.3,88,73,55,30.02,29.77,24,8,24,0.23
2013-3-7,59.5,56.7,55.0,55.6,53.4,51.5,91,89,86,29.81,29.74,12,3,12,0.32
2013-3-8,59.4,56.4,54.4,55.2,53.1,51.5,93,89,79,29.81,29.67,22,6,22,0.43
2013-3-9,64.7,57.8,52.7,53.3,50.2,45.8,91,77,51,29.82,29.72,26,8,26,0.01
2013-3-10,63.9,57.0,52.7,53.2,51.2,46.9,92,82,59,29.74,29.60,30,8,30,0.22
2013-3-11,62.3,56.5,52.5,52.1,49.3,46.8,88,77,60,29.65,29.59,22,9,22,0.01
2013-3-12,60.0,51.8,46.9,49.4,46.2,42.3,91,81,62,29.63,29.53,25,7,25,1.33
2013-3-13,55.5,51.2,48.1,49.8,47.4,45.2,90,87,77,29.54,29.26,26,7,26,0.39
2013-3-14,50.8,48.0,44.9,46.2,44.6,41.8,91,88,79,29.30,29.09,14,3,14,0.98
2013-3-15,45.6,42.1,38.8,41.8,32.3,26.2,88,69,53,29.88,29.30,32,11,32,0.33
2013-3-16,52.7,44.2,38.0,32.0,27.8,24.3,66,53,37,30.16,29.88,18,6,18,0.00
2013-3-17,53.3,48.0,40.0,34.8,32.1,28.7,65,54,48,30.14,30.04,13,6,13,0.00
2013-3-18,61.4,56.2,51.0,53.7,43.3,33.8,88,63,48,30.04,29.57,34,12,34,0.43
2013-3-19,59.6,52.8,46.5,45.8,43.4,40.9,81,71,57,29.84,29.70,32,10,32,0.00
2013-3-20,62.8,50.5,43.7,47.0,42.4,36.4,90,75,44,29.84,29.69,16,3,16,0.29
2013-3-21,63.9,55.2,47.8,49.5,43.3,34.7,93,68,36,29.96,29.65,27,9,27,0.05
2013-3-22,60.7,53.8,42.6,47.4,42.5,35.1,85,66,46,29.96,29.88,20,6,20,0.00
2013-3-23,66.0,54.6,45.0,49.6,45.6,41.2,88,73,49,29.96,29.80,13,3,13,0.00
2013-3-24,75.8,62.4,51.3,48.9,43.8,35.1,81,54,25,29.80,29.46,23,7,23,0.00
2013-3-25,61.1,57.0,53.5,52.6,49.5,46.1,87,76,63,29.49,29.31,22,11,22,0.09
2013-3-26,56.5,52.9,50.9,51.1,47.1,43.8,90,81,71,29.60,29.49,21,5,21,0.54
2013-3-27,61.0,54.1,49.0,52.3,48.2,43.7,92,81,62,29.83,29.60,18,5,18,0.01
2013-3-28,61.0,55.1,51.4,53.7,49.1,45.1,88,80,74,29.92,29.82,15,5,15,0.00
2013-3-29,67.3,59.2,52.9,54.7,52.2,50.3,92,79,58,29.91,29.82,20,5,20,0.05
2013-3-30,63.2,57.2,52.3,54.9,52.7,49.5,90,85,70,29.83,29.54,26,9,26,0.52
2013-3-31,59.6,55.6,51.0,52.1,49.2,44.0,89,79,59,29.71,29.53,37,17,37,0.44
2013-4-1,64.4,55.0,48.5,51.9,48.6,43.3,92,80,49,29.77,29.62,21,5,21,0.24
2013-4-2,61.5,56.0,50.7,54.4,51.3,47.5,91,85,70,29.62,29.41,30,12,30,0.70
2013-4-3,60.4,54.9,49.7,51.3,48.7,47.1,92,80,65,29.81,29.55,26,7,26,0.03
2013-4-4,69.2,59.1,50.2,50.5,48.0,40.1,90,69,36,29.84,29.56,17,4,17,0.00
2013-4-5,63.5,59.4,54.1,54.1,50.4,42.8,87,73,49,29.81,29.44,28,10,28,0.00
2013-4-6,67.2,59.5,51.7,53.1,50.0,44.1,90,72,54,29.81,29.70,20,6,20,0.00
2013-4-7,67.1,59.9,54.7,50.3,43.7,41.6,73,56,42,29.75,29.62,26,8,26,0.00
2013-4-8,63.2,55.3,50.2,49.3,42.4,34.5,82,63,45,29.91,29.74,22,8,22,0.00
2013-4-9,65.5,58.0,51.9,53.1,49.2,44.1,87,74,48,29.99,29.84,22,8,22,0.00
2013-4-10,67.1,59.0,53.6,53.1,50.4,48.2,84,74,56,30.04,29.93,20,6,20,0.00
2013-4-11,68.9,61.3,54.5,52.0,49.4,45.0,85,66,48,30.06,30.02,21,6,21,0.00
2013-4-12,69.3,60.0,53.2,53.7,51.3,49.3,88,74,53,30.05,29.99,24,5,24,0.00
2013-4-13,69.9,62.8,57.3,54.2,52.5,48.8,84,70,51,30.26,30.05,22,6,22,0.00
2013-4-14,80.0,63.7,54.1,56.5,51.8,44.5,87,68,32,30.31,30.24,20,4,20,0.00
2013-4-15,78.0,65.2,57.2,49.5,40.6,34.6,72,42,27,30.28,30.13,22,6,22,0.00
2013-4-16,73.6,63.2,54.7,56.5,49.5,41.9,84,62,43,30.18,30.11,21,4,21,0.00
2013-4-17,75.4,65.0,56.3,52.0,40.1,33.7,75,42,24,30.21,30.15,24,6,24,0.00
2013-4-18,75.6,65.0,54.9,53.8,41.3,32.8,76,44,22,30.18,30.05,22,6,22,0.00
2013-4-19,74.1,63.8,54.2,60.0,54.6,48.7,86,73,53,30.07,29.95,20,5,20,0.00
2013-4-20,73.9,63.8,57.7,57.7,55.1,53.2,89,75,51,30.03,29.97,22,6,22,0.00
2013-4-21,66.2,60.0,56.2,53.4,47.2,41.8,79,64,44,30.04,29.97,21,8,21,0.00
2013-4-22,63.9,54.9,49.4,49.1,46.8,44.0,86,75,52,30.06,29.91,20,5,20,0.38
2013-4-23,72.7,60.8,50.8,54.1,47.6,42.1,81,64,39,30.25,30.05,16,6,16,0.00
2013-4-24,75.4,66.4,58.9,54.5,51.4,48.4,70,59,45,30.33,30.24,28,13,28,0.00
2013-4-25,81.5,71.9,62.5,55.8,51.6,47.1,65,50,35,30.26,30.10,25,10,25,0.00
2013-4-26,80.8,68.8,59.6,55.8,51.7,43.7,82,57,30,30.14,29.97,22,8,22,0.13
2013-4-27,62.8,59.9,57.4,57.3,55.2,52.6,90,84,79,29.97,29.83,15,4,15,0.47
2013-4-28,82.7,70.3,56.9,59.6,56.0,52.8,87,63,37,29.99,29.88,12,4,12,0.00
2013-4-29,89.0,77.2,65.0,59.6,53.0,47.0,72,45,27,30.02,29.98,17,6,17,0.00
2013-4-30,92.0,76.5,67.2,59.3,53.9,49.1,64,47,26,30.09,30.00,17,6,17,0.00
2013-5-1,87.3,76.0,67.2,60.2,54.5,45.2,69,49,26,30.06,29.96,18,5,18,0.00
2013-5-2,85.5,73.5,65.5,59.7,55.1,43.8,74,55,25,30.00,29.89,18,1,18,0.02
2013-5-3,86.8,71.5,60.4,60.6,55.9,50.2,79,60,34,29.95,29.89,0,0,0,0.00
2013-5-4,87.7,73.1,61.6,60.9,57.0,52.3,82,60,32,30.01,29.87,0,0,0,0.00
2013-5-5,84.9,73.3,63.7,61.5,57.7,51.7,80,60,35,30.03,29.90,0,0,0,0.03
2013-5-6,71.9,66.1,60.2,61.5,57.7,54.0,82,74,63,30.02,29.88,0,0,0,0.25
2013-5-7,72.3,64.0,58.2,58.1,55.4,52.8,87,74,52,30.03,29.98,0,0,0,0.23
2013-5-8,73.4,65.5,59.4,59.6,57.2,54.8,91,76,56,30.02,29.91,0,0,0,0.01
2013-5-9,81.2,68.2,60.7,59.5,56.0,51.3,84,67,37,29.99,29.93,0,0,0,0.23
2013-5-10,74.7,67.0,60.8,60.0,58.1,53.8,89,74,53,29.99,29.94,0,0,0,0.00
2013-5-11,72.9,65.8,61.3,60.4,56.7,52.1,88,73,56,29.97,29.87,0,0,0,0.00
2013-5-12,72.9,64.8,59.9,56.8,54.6,51.4,84,70,49,29.90,29.83,0,0,0,0.04
2013-5-13,77.3,65.9,58.9,56.5,51.1,45.5,84,61,36,29.97,29.87,0,0,0,0.72
2013-5-14,79.3,64.7,55.4,53.5,46.1,40.0,69,52,30,30.01,29.90,0,0,0,0.00
2013-5-15,76.8,65.9,57.3,57.1,50.7,38.6,75,60,27,29.91,29.71,0,0,0,0.00
2013-5-16,80.9,71.4,65.5,61.2,55.7,48.5,74,58,44,29.72,29.49,0,0,0,0.06
2013-5-17,71.8,66.5,59.6,60.9,55.9,47.5,84,70,46,29.96,29.57,0,0,0,0.14
2013-5-18,88.7,70.9,57.8,56.9,52.8,46.1,80,57,29,30.02,29.85,0,0,0,0.00
2013-5-19,74.1,67.2,60.2,61.1,52.5,41.3,82,60,36,30.09,29.82,0,0,0,0.00
2013-5-20,72.9,65.0,56.5,55.6,48.8,42.1,79,58,34,30.12,30.08,0,0,0,0.00
2013-5-21,81.5,65.9,59.4,55.5,49.6,42.9,78,57,32,30.10,29.81,0,0,0,0.16
2013-5-22,77.3,67.8,61.3,61.0,56.5,53.5,80,68,54,29.82,29.34,0,0,0,0.13
2013-5-23,68.5,63.1,59.5,59.6,55.8,50.7,90,78,54,29.69,29.40,0,0,0,0.05
2013-5-24,66.4,61.8,57.4,55.7,51.2,43.0,87,69,43,29.90,29.69,0,0,0,0.05
2013-5-25,64.2,57.0,51.6,52.4,48.8,44.6,87,75,53,29.93,29.88,0,0,0,0.31
2013-5-26,65.1,57.9,51.5,49.9,46.5,43.6,88,67,49,30.04,29.86,0,0,0,0.09
2013-5-27,69.0,60.5,50.7,50.6,48.3,45.9,86,66,46,30.04,29.92,0,0,0,0.00
2013-5-28,79.4,66.7,55.9,54.3,49.2,42.5,77,56,32,29.92,29.62,0,0,0,0.00
2013-5-29,71.2,63.4,56.8,57.3,53.2,49.2,84,70,53,29.77,29.68,0,0,0,0.09
2013-5-30,65.3,58.2,52.4,52.7,48.9,45.7,84,72,53,29.82,29.74,0,0,0,0.27
2013-5-31,64.5,58.2,50.0,57.4,51.9,46.5,88,80,61,29.82,29.74,0,0,0,0.20
2013-6-1,63.1,58.5,54.1,57.0,53.6,50.6,90,84,73,29.80,29.74,0,0,0,0.36
2013-6-2,71.5,61.1,50.5,58.1,54.0,47.7,92,79,59,29.97,29.79,0,0,0,0.01
2013-6-3,75.4,64.5,57.6,59.0,55.9,54.1,89,75,50,29.97,29.89,0,0,0,0.34
2013-6-4,71.7,63.4,58.3,59.3,55.9,53.7,88,77,60,30.00,29.92,0,0,0,0.05
2013-6-5,73.4,65.0,58.0,59.9,57.3,54.2,90,77,56,30.08,29.99,0,0,0,0.01
2013-6-6,81.7,69.5,60.1,62.2,58.6,55.4,88,70,46,30.08,29.98,0,0,0,0.00
2013-6-7,87.0,73.5,64.8,59.1,55.2,52.4,69,54,33,30.02,29.94,0,0,0,0.00
2013-6-8,81.8,72.7,65.2,63.2,59.3,54.8,84,63,47,30.00,29.92,0,0,0,0.00
2013-6-9,82.7,72.1,64.2,65.2,59.4,51.9,89,66,46,29.99,29.86,0,0,0,0.00
2013-6-10,75.3,68.6,61.8,61.8,56.1,51.6,78,65,45,29.91,29.84,0,0,0,0.00
2013-6-11,76.1,68.0,62.4,60.9,57.8,55.1,84,71,53,29.95,29.88,1,0,0,0.08
2013-6-12,83.5,71.7,61.4,59.9,55.8,47.3,86,60,34,30.01,29.94,17,1,17,0.03
2013-6-13,86.9,77.7,64.9,55.9,52.2,46.8,55,42,30,30.01,29.96,23,8,23,1.14
2013-6-14,85.6,75.6,67.9,64.0,57.0,51.6,79,53,38,30.05,29.98,20,6,20,0.00
2013-6-15,82.7,73.9,66.4,66.6,62.8,60.1,84,69,55,30.07,30.03,18,5,18,0.00
2013-6-16,85.8,75.5,65.8,66.3,63.0,60.4,84,67,48,30.08,30.02,18,4,18,0.00
2013-6-17,91.7,80.0,68.7,71.6,66.9,62.6,82,66,47,30.06,29.97,15,4,15,0.00
2013-6-18,96.1,84.6,74.6,71.5,68.0,65.7,74,59,43,30.02,29.97,18,6,18,0.00
2013-6-19,95.8,84.7,74.8,71.0,66.1,62.9,73,55,39,30.01,29.97,20,6,20,0.00
2013-6-20,92.6,79.0,72.9,66.9,64.0,60.2,74,61,37,30.01,29.97,16,2,16,0.00
2013-6-21,93.5,81.0,71.2,69.1,64.1,58.0,80,58,34,30.02,29.98,20,5,20,0.00
2013-6-22,88.4,78.5,70.5,69.4,65.6,60.1,87,67,43,30.03,29.96,20,6,20,0.00
2013-6-23,84.8,74.8,69.5,66.7,64.0,59.3,82,70,44,30.03,29.94,22,6,22,0.00
2013-6-24,77.1,70.5,66.3,64.6,59.8,54.3,83,70,51,29.97,29.91,31,10,31,0.00
2013-6-25,80.1,72.1,65.5,61.6,58.6,54.5,84,64,46,30.04,29.93,20,6,20,0.00
2013-6-26,84.0,72.6,64.4,60.3,54.2,48.6,68,53,33,30.05,29.99,23,7,23,0.00
2013-6-27,82.8,72.1,64.6,59.0,53.8,50.6,68,53,35,30.07,30.03,22,8,22,0.00
2013-6-28,79.7,71.2,63.1,61.1,57.8,54.6,77,63,46,30.07,29.97,20,6,20,0.00
2013-6-29,77.2,68.0,61.5,60.8,56.2,51.2,81,67,42,30.01,29.95,50,5,50,0.66
2013-6-30,80.9,70.3,61.4,61.0,55.2,51.7,77,60,37,30.08,29.99,22,6,22,0.00
2013-7-1,84.8,73.9,62.8,60.9,56.7,51.2,82,57,34,30.10,30.05,20,6,20,0.00
2013-7-2,86.4,75.7,65.6,62.0,58.0,53.7,73,56,39,30.09,30.02,20,5,20,0.00
2013-7-3,85.4,74.7,65.3,63.2,58.2,53.1,77,58,36,30.05,29.96,20,5,20,0.00
2013-7-4,82.8,72.3,67.3,65.6,61.6,57.0,82,70,46,30.03,29.96,20,4,20,0.11
2013-7-5,90.3,79.0,68.1,63.8,58.3,51.0,78,52,30,30.07,30.00,26,7,26,0.00
2013-7-6,91.6,80.1,69.8,63.4,57.8,50.5,59,47,34,30.07,30.00,22,5,22,0.00
2013-7-7,89.9,78.0,71.2,68.1,62.4,58.8,77,60,41,30.07,30.00,32,5,32,0.06
2013-7-8,90.5,75.4,66.8,66.0,62.5,60.0,83,66,41,30.12,30.04,36,6,36,0.61
2013-7-9,88.1,73.0,68.2,66.5,62.0,58.5,83,69,43,30.07,29.97,37,5,37,0.11
2013-7-10,85.3,75.8,65.7,68.0,63.6,59.6,86,67,46,29.98,29.87,20,5,20,0.00
2013-7-11,84.4,75.9,68.8,69.6,66.8,64.1,86,74,57,29.94,29.87,21,5,21,0.00
2013-7-12,85.5,77.1,69.0,70.4,67.0,63.3,84,72,56,30.03,29.93,18,5,18,0.00
2013-7-13,87.4,78.8,71.0,70.3,67.3,64.5,83,69,49,30.03,29.98,23,6,23,0.00
2013-7-14,87.8,76.9,68.9,70.8,67.2,62.6,84,73,48,30.02,29.96,31,6,31,0.46
2013-7-15,90.4,77.9,68.4,67.7,62.7,55.4,79,62,33,30.04,29.97,20,8,20,0.00
2013-7-16,91.1,79.0,70.7,66.7,58.6,-99.9,76,51,34,30.08,30.03,15,5,21,0.00
2013-7-17,91.9,80.0,71.9,67.8,59.0,53.6,68,50,33,30.08,30.00,17,6,17,0.00
2013-7-18,88.1,79.3,71.8,63.3,58.7,55.3,63,50,40,30.07,30.03,22,6,22,0.00
2013-7-19,88.0,77.7,70.6,68.9,62.4,58.4,71,60,45,30.06,29.99,23,6,23,0.00
2013-7-20,88.1,77.8,69.0,69.5,62.6,58.6,80,61,40,30.01,29.92,20,7,20,0.00
2013-7-21,89.3,77.4,70.8,69.1,63.2,57.3,83,63,38,30.00,29.93,23,6,23,0.02
2013-7-22,92.5,79.6,69.3,69.8,63.0,59.4,72,59,36,30.00,29.91,22,6,22,0.00
2013-7-23,91.4,81.6,73.6,71.6,65.4,60.2,81,59,40,29.97,29.89,18,6,18,0.00
2013-7-24,89.3,80.6,73.3,72.1,70.6,68.2,85,72,53,30.02,29.95,20,5,20,0.00
2013-7-25,90.3,80.9,74.6,72.7,70.1,64.3,85,71,44,30.04,30.00,20,5,20,0.00
2013-7-26,93.4,81.7,73.4,75.7,71.6,69.0,87,72,47,30.03,29.95,20,4,20,0.00
2013-7-27,94.7,83.7,75.2,75.3,71.8,69.0,84,69,47,29.96,29.91,16,4,16,0.00
2013-7-28,96.6,85.3,75.5,76.8,71.4,67.5,79,64,46,30.05,29.94,20,4,20,0.00
2013-7-29,95.3,84.7,75.0,73.2,69.2,65.2,76,61,42,30.08,30.00,22,5,22,0.00
2013-7-30,90.6,89.3,86.5,68.7,67.6,66.3,54,49,46,29.96,29.94,15,6,15,0.00
2013-8-6,93.3,86.9,79.5,74.3,71.1,64.8,79,61,43,29.97,29.93,18,7,18,0.00
2013-8-7,94.3,84.7,75.2,77.0,71.9,67.6,82,66,48,29.96,29.91,17,4,17,0.00
2013-8-8,95.5,85.3,76.9,75.6,72.3,68.8,81,67,44,29.96,29.90,20,4,20,0.00
2013-8-9,95.6,80.5,70.0,75.3,68.4,60.6,81,68,33,29.92,29.79,32,7,32,0.15
2013-8-10,87.8,77.4,68.5,65.7,61.8,59.5,77,60,45,29.90,29.81,22,6,22,0.01
2013-8-11,94.9,80.7,71.8,70.4,63.4,59.6,77,57,32,29.94,29.88,18,5,18,0.00
2013-8-12,89.7,81.1,74.6,72.0,65.8,60.8,77,60,46,29.99,29.93,21,6,21,0.00
2013-8-13,89.5,79.6,71.2,70.5,68.4,65.8,85,70,50,29.99,29.94,20,5,20,0.00
2013-8-14,88.3,79.2,73.0,72.7,67.9,61.0,85,70,48,29.96,29.89,24,6,24,0.00
2013-8-15,90.9,83.8,74.4,66.0,63.7,62.0,70,52,41,30.02,29.91,16,9,16,0.00
2013-8-16,94.3,81.1,72.6,66.8,62.3,57.0,69,55,32,30.03,29.96,21,8,21,0.00
2013-8-17,92.3,81.3,74.7,69.2,64.7,60.4,74,58,41,30.02,29.97,20,5,20,0.00
2013-8-18,91.4,81.0,72.1,70.8,66.1,60.8,81,63,38,30.06,29.99,20,5,20,0.00
2013-8-19,91.2,80.2,72.3,71.2,68.3,60.7,86,69,38,30.04,29.95,18,5,18,0.00
2013-8-20,84.6,77.3,72.4,70.5,66.0,59.2,84,69,49,29.98,29.89,23,7,23,0.35
2013-8-21,85.5,78.6,70.7,64.9,60.9,57.9,69,55,46,29.98,29.92,31,12,31,0.00
2013-8-22,93.8,79.4,71.7,69.3,62.2,57.2,75,57,34,29.98,29.90,25,7,25,0.00
2013-8-23,89.2,79.6,71.9,69.8,65.8,61.4,81,64,42,29.99,29.94,20,5,20,0.00
2013-8-24,86.8,78.8,72.5,69.6,65.5,59.7,83,66,41,29.99,29.90,20,6,20,0.00
2013-8-25,80.7,73.6,66.2,69.3,65.0,62.2,88,75,59,29.92,29.83,31,4,31,0.59
2013-8-26,84.9,77.3,68.9,68.4,65.1,61.8,85,67,48,29.89,29.82,17,4,17,0.00
2013-8-27,83.8,75.1,69.3,71.3,67.1,64.2,87,77,61,29.89,29.78,23,5,23,0.41
2013-8-28,82.8,74.0,66.8,67.8,63.8,59.7,88,72,49,29.98,29.85,23,5,23,0.01
2013-8-29,82.5,74.3,66.2,65.6,62.1,59.0,84,67,47,30.07,29.98,13,3,13,0.00
2013-8-30,84.7,75.9,69.4,61.5,58.4,54.8,72,56,40,30.06,29.95,20,9,20,0.00
2013-8-31,88.3,77.0,68.2,58.4,54.0,49.9,58,46,29,30.06,29.97,17,6,17,0.00
2013-9-1,89.6,77.2,68.5,65.7,54.2,48.3,70,47,28,30.07,29.98,18,7,18,0.00
2013-9-2,88.5,76.9,68.8,66.3,58.6,53.6,71,55,32,30.16,30.04,22,6,22,0.00
2013-9-3,88.9,78.2,69.8,63.1,54.6,50.1,62,46,29,30.18,30.12,18,8,18,0.00
2013-9-4,90.4,79.4,66.6,60.6,53.1,49.2,56,41,28,30.19,30.08,26,7,26,0.00
2013-9-5,90.1,79.4,71.6,66.0,56.9,52.0,59,47,29,30.11,29.94,23,6,23,0.00
2013-9-6,91.0,81.1,73.9,67.6,62.4,57.6,78,54,36,29.96,29.87,21,3,21,0.00
2013-9-7,87.6,77.6,70.2,69.5,65.7,61.1,81,68,47,30.10,29.95,22,4,22,0.00
2013-9-8,88.0,78.0,69.9,70.8,67.8,63.1,87,72,45,30.16,30.09,18,4,18,0.00
2013-9-9,84.2,76.2,71.2,71.4,68.3,65.3,87,77,55,30.15,30.06,24,5,24,0.07
2013-9-10,79.6,72.9,63.5,67.2,64.2,57.9,89,75,61,30.11,29.94,32,3,32,1.12
2013-9-11,79.5,70.7,64.1,67.6,64.0,60.8,93,81,57,30.03,29.98,26,6,26,0.40
2013-9-12,75.5,71.0,64.5,66.6,59.7,55.0,90,68,52,30.01,29.93,24,10,24,0.41
2013-9-13,79.3,69.1,61.6,60.5,57.1,54.6,80,67,43,30.12,29.97,21,4,21,0.00
2013-9-14,80.2,70.4,62.3,62.1,59.1,56.3,81,69,46,30.12,30.06,20,6,20,0.00
2013-9-15,75.4,69.2,61.2,61.7,59.7,57.0,87,73,60,30.08,29.82,17,4,17,0.00
2013-9-16,78.8,70.3,63.8,64.7,61.2,57.3,91,74,49,29.82,29.74,22,6,22,0.35
2013-9-17,74.8,67.9,63.6,67.4,60.1,57.0,92,77,57,29.76,29.66,37,8,37,0.17
2013-9-18,75.3,67.8,60.6,60.8,58.4,55.7,86,73,55,29.78,29.72,22,4,22,0.00
2013-9-19,78.4,70.6,64.7,65.1,61.8,58.0,89,75,57,29.85,29.72,20,5,20,0.01
2013-9-20,83.2,71.0,62.2,63.5,59.3,56.1,84,68,41,30.02,29.85,14,4,14,0.00
2013-9-21,86.5,74.1,66.2,64.2,58.2,50.0,79,60,31,30.13,30.02,16,6,16,0.00
2013-9-22,78.1,72.3,64.9,56.1,49.6,44.3,56,45,34,30.18,30.12,29,12,29,0.00
2013-9-23,80.5,68.9,61.3,56.3,50.6,44.2,72,53,37,30.16,30.06,21,6,21,0.00
2013-9-24,80.1,68.6,61.0,61.4,56.0,50.3,81,65,45,30.08,30.04,18,5,18,0.00
2013-9-25,76.8,68.7,62.5,62.7,59.9,57.9,87,74,57,30.06,30.00,17,4,17,0.00
2013-9-26,78.6,69.9,61.8,65.1,61.4,57.8,88,75,56,30.04,29.97,18,4,18,0.00
2013-9-27,78.8,71.6,64.9,67.1,65.0,61.6,91,80,64,30.01,29.95,18,3,18,0.00
2013-9-28,81.3,71.7,65.2,66.7,64.4,62.0,91,79,56,29.98,29.92,15,3,15,0.00
2013-9-29,78.6,71.9,65.2,67.7,64.7,61.9,90,79,62,29.94,29.74,12,2,12,0.07
2013-9-30,75.7,70.5,64.8,68.2,64.5,61.0,92,82,66,29.74,29.58,43,6,43,0.92
2013-10-1,78.3,69.1,61.8,63.8,61.0,58.2,91,76,53,29.79,29.64,17,4,17,0.00
2013-10-2,75.7,68.6,64.0,58.6,54.2,49.4,76,61,49,30.07,29.78,23,10,23,0.00
2013-10-3,72.7,65.6,59.7,50.6,46.9,43.4,61,51,39,30.26,30.07,26,11,26,0.00
2013-10-4,71.7,64.2,57.6,53.1,48.6,44.1,63,57,49,30.30,30.23,23,10,23,0.00
2013-10-5,64.8,62.2,59.0,60.4,55.9,51.6,92,81,63,30.25,30.08,20,6,20,1.33
2013-10-6,76.6,68.7,61.9,64.6,62.1,58.3,90,80,63,30.10,29.99,20,5,20,0.63
2013-10-7,78.3,68.7,62.9,65.2,62.1,60.1,91,80,58,30.13,30.02,15,3,15,0.06
2013-10-8,75.1,65.8,61.3,63.5,59.5,55.6,89,81,60,30.15,30.09,20,4,20,0.14
2013-10-9,72.6,65.2,60.3,62.6,58.8,55.5,90,80,60,30.12,30.03,18,4,18,0.21
2013-10-10,73.9,65.5,59.2,61.9,59.5,56.6,92,81,62,30.05,29.87,20,4,20,0.02
2013-10-11,74.1,66.9,62.7,66.3,62.9,59.7,92,87,72,30.06,29.86,20,3,20,0.25
2013-10-14,82.1,73.9,66.2,63.8,59.3,53.7,79,62,39,30.11,30.06,8,2,8,0.00
2013-10-15,75.0,67.2,60.6,63.8,59.2,55.9,87,76,56,30.11,29.97,12,2,12,0.00
2013-10-16,74.7,67.1,63.1,65.3,60.0,50.8,91,78,63,29.97,29.68,23,6,23,0.50
2013-10-17,74.8,65.0,58.6,54.2,49.1,46.1,71,57,37,30.02,29.86,15,4,15,0.00
2013-10-18,75.3,64.6,55.5,54.3,47.8,39.6,75,56,33,30.11,30.01,12,3,12,0.00
2013-10-19,77.0,65.5,55.4,59.0,52.6,45.8,80,65,35,30.27,30.11,17,2,17,0.00
2013-10-20,76.4,67.8,59.7,64.1,58.6,53.3,87,73,59,30.31,30.24,13,3,13,0.00
2013-10-21,77.4,67.7,60.2,63.6,60.4,57.3,91,79,57,30.28,30.21,12,2,12,0.00
2013-10-22,78.4,67.8,60.1,66.0,61.4,56.8,91,81,59,30.23,30.14,12,2,12,0.00
2013-10-23,78.0,67.5,62.1,65.9,62.5,59.3,93,84,63,30.20,30.11,13,2,13,0.00
2013-10-24,73.3,66.4,60.5,64.1,61.0,58.2,93,83,64,30.19,30.14,8,2,8,0.01
2013-10-25,78.3,68.7,61.7,64.5,60.8,57.3,89,77,53,30.19,30.13,15,2,15,0.00
2013-10-26,77.9,68.1,59.9,65.1,60.7,56.4,90,78,58,30.24,30.17,14,3,14,0.00
2013-10-27,73.6,66.1,61.6,64.3,61.3,58.6,91,85,67,30.26,30.19,13,2,13,0.00
2013-10-28,75.2,67.0,60.7,64.3,61.8,58.1,93,84,65,30.22,30.11,17,2,17,0.01
2013-10-29,74.4,66.6,61.3,64.3,61.3,58.7,93,84,69,30.11,29.98,13,2,13,0.00
2013-10-30,73.5,65.5,59.3,63.1,59.8,56.5,92,82,65,30.06,29.96,12,2,12,0.01
2013-10-31,78.1,68.8,60.7,58.6,56.7,53.8,88,67,45,30.12,30.05,12,4,12,0.00
2013-11-1,76.8,67.5,62.1,60.3,57.4,55.4,79,70,48,30.15,30.12,17,2,17,0.00
2013-11-2,68.9,65.2,60.1,63.0,59.4,54.3,90,81,77,30.15,30.08,13,3,13,0.48
2013-11-3,70.6,65.7,62.1,63.8,61.2,59.3,92,86,75,30.09,29.98,17,4,17,0.05
2013-11-4,72.7,66.8,62.8,63.5,60.0,58.4,88,79,63,29.99,29.59,22,8,22,0.00
2013-11-5,69.1,62.8,56.8,61.4,57.5,52.6,88,83,72,29.59,29.39,41,7,41,0.27
2013-11-6,70.9,61.7,57.0,56.0,53.6,51.6,88,75,55,29.91,29.52,15,4,15,0.00
2013-11-7,72.0,62.1,54.2,61.7,55.2,48.3,90,79,59,30.13,29.91,14,3,14,0.00
2013-11-8,71.3,63.9,59.2,62.4,59.0,56.0,90,84,70,30.14,30.09,16,2,16,0.00
2013-11-9,72.9,64.0,57.1,63.4,59.2,54.3,93,85,70,30.11,29.97,18,3,18,0.01
2013-11-10,67.1,60.8,55.6,57.8,54.6,50.7,91,81,60,30.01,29.54,48,9,48,0.60
2013-11-11,61.4,56.5,51.6,53.8,49.1,46.6,89,77,61,29.69,29.37,26,10,26,0.32
2013-11-12,64.6,60.5,56.2,54.2,51.3,46.2,76,72,66,29.94,29.69,31,11,31,0.03
2013-11-13,66.9,63.3,60.4,55.2,53.0,51.6,74,69,62,29.96,29.87,32,12,32,0.00
2013-11-14,68.6,63.8,57.8,53.8,51.5,49.6,74,65,54,29.98,29.89,29,8,29,0.00
2013-11-15,63.9,60.2,55.6,54.7,51.3,49.0,80,73,61,29.99,29.85,26,6,26,0.00
2013-11-16,63.2,61.2,58.9,52.6,50.5,48.3,78,68,59,30.12,29.99,26,11,26,0.10
2013-11-17,68.8,62.0,58.1,53.6,51.8,49.2,78,69,57,30.17,30.09,21,6,21,0.00
2013-11-18,65.1,61.0,55.9,53.8,51.8,49.6,80,72,64,30.10,29.78,16,8,16,0.00
2013-11-19,65.3,58.6,54.1,56.5,51.5,49.7,89,78,61,29.81,29.59,32,7,32,0.83
2013-11-20,62.2,57.6,50.2,55.3,51.9,46.8,88,82,69,29.76,29.50,33,6,33,0.50
2013-11-21,58.4,51.7,49.2,48.5,45.0,40.0,90,79,52,29.74,29.58,22,3,22,0.26
2013-11-22,54.1,51.1,49.3,50.4,48.0,45.5,91,89,81,29.60,29.46,17,5,17,2.57
2013-11-23,51.8,48.2,45.7,48.2,43.9,41.4,91,85,72,29.63,29.43,22,5,22,0.51
2013-11-24,52.6,49.6,46.3,45.6,43.6,41.2,85,80,76,29.73,29.60,9,2,9,0.13
2013-11-25,57.8,47.8,38.9,44.3,38.5,29.7,82,71,54,29.89,29.71,28,8,28,0.29
2013-11-26,48.3,42.1,36.1,33.1,29.6,26.8,77,62,47,29.99,29.82,26,7,26,0.00
2013-11-27,48.4,42.4,36.0,34.0,31.4,28.3,77,65,53,30.28,29.99,23,7,23,0.00
2013-11-28,46.8,44.2,41.6,39.6,36.7,33.3,81,75,68,30.33,30.24,26,13,26,0.09
2013-11-29,55.8,49.7,45.6,43.0,40.3,38.3,77,70,59,30.26,30.08,25,12,25,0.00
2013-11-30,55.8,51.2,46.2,45.0,42.0,39.1,78,71,64,30.08,29.81,46,12,46,0.00
2013-12-1,58.7,55.6,53.9,46.4,44.6,43.3,74,67,59,29.82,29.61,69,40,69,0.05
2013-12-2,58.9,56.2,53.7,55.0,51.9,48.1,88,85,80,30.14,29.94,29,6,29,0.71
2013-12-3,57.9,55.1,49.5,49.0,40.1,36.1,82,58,48,30.25,30.09,47,24,47,0.04
2013-12-4,59.2,50.8,43.8,41.8,38.5,35.9,79,63,46,30.26,30.19,23,5,23,0.00
2013-12-5,57.8,47.6,39.9,46.5,40.9,35.2,88,78,63,30.22,30.15,7,1,7,0.00
2013-12-6,56.5,49.8,45.8,46.7,43.4,39.4,88,79,62,30.15,29.96,10,1,10,0.00
2013-12-7,59.9,50.7,42.4,42.8,39.5,36.7,82,66,46,30.35,30.00,20,5,20,0.00
2013-12-8,58.5,50.5,43.2,47.6,42.8,36.8,83,75,65,30.44,30.33,8,1,8,0.00
2013-12-9,59.0,53.3,49.5,51.4,47.5,43.9,86,81,74,30.45,30.39,9,1,9,0.07
2013-12-10,60.4,52.7,50.3,47.4,45.5,40.5,86,77,52,30.53,30.41,25,2,25,0.00
2013-12-11,61.5,53.0,47.5,44.4,41.7,39.1,76,66,49,30.55,30.49,14,3,14,0.00
2013-12-12,58.9,50.8,45.3,45.5,42.0,38.5,83,72,60,30.52,30.36,13,3,13,0.00
2013-12-13,56.7,49.8,43.7,46.3,42.6,38.7,86,77,65,30.35,30.26,10,2,10,0.00
2013-12-14,56.7,47.4,39.2,45.5,41.3,35.9,89,80,62,30.43,30.30,7,1,7,0.00
2013-12-15,55.2,48.5,43.8,47.6,41.9,37.2,86,78,67,30.49,30.40,12,2,12,0.01
2013-12-16,58.8,49.5,43.7,41.0,37.3,32.3,76,63,48,30.55,30.47,12,3,12,0.00
2013-12-17,62.0,50.0,43.7,39.7,35.5,32.7,68,58,41,30.53,30.41,13,3,13,0.00
2013-12-18,57.9,48.1,39.9,42.4,38.3,34.1,83,70,45,30.41,30.29,12,2,12,0.00
2013-12-19,56.7,47.1,40.2,46.5,40.6,35.1,85,78,66,30.31,30.22,7,1,7,0.00
2013-12-20,61.1,52.9,46.9,45.5,43.2,41.1,81,70,55,30.50,30.23,13,4,13,0.00
2013-12-21,60.8,53.3,46.6,43.8,41.8,39.5,81,66,51,30.60,30.49,16,6,16,0.00
2013-12-22,59.2,50.2,44.0,43.4,39.9,36.8,80,68,52,30.57,30.42,12,3,12,0.00
2013-12-23,57.7,48.9,40.5,43.2,38.7,34.8,84,69,56,30.42,30.26,14,3,14,0.00
2013-12-24,57.7,49.2,43.8,42.5,38.6,35.9,80,67,55,30.26,30.15,14,4,14,0.00
2013-12-25,58.9,49.9,42.4,50.0,43.7,36.3,85,79,70,30.15,29.78,16,2,16,0.00
2013-12-26,58.4,52.0,46.9,52.9,47.7,44.4,91,85,74,29.78,29.44,30,8,30,0.79
2013-12-27,55.8,48.7,44.3,47.6,44.6,41.8,92,86,68,29.93,29.53,8,2,8,0.09
2013-12-28,59.2,50.9,46.2,45.3,42.7,40.5,86,74,55,30.09,29.93,13,4,13,0.01
2013-12-29,59.3,52.1,46.3,50.5,47.6,42.4,89,85,71,30.16,30.08,7,1,7,0.01
2013-12-30,57.6,54.4,51.1,49.8,48.1,46.4,90,80,69,30.15,30.08,15,6,15,0.01
2013-12-31,58.9,54.4,50.2,46.6,44.1,42.2,76,68,61,30.10,30.04,26,8,26,0.00
2014-1-1,57.6,52.6,49.7,48.3,45.1,42.2,85,76,70,30.15,30.05,15,5,15,0.00
2014-1-2,57.7,51.4,45.4,49.0,46.0,42.3,90,82,67,30.15,30.09,7,2,7,0.08